Regional Weather Roundup
Issued by NWS

Home | Current Version | Previous Version | Graphics & Text | Print | Product List | Glossary On
Versions: 1 2 3 4 5 6 7 8 9 10 11 12 13 14 15 16 17 18 19 20 21 22 23 24 25 26 27 28 29 30 31 32 33 34 35 36 37 38 39 40 41 42 43 44 45 46 47 48 49 50
000
ASUS45 KABQ 030901
RWRNM
NEW MEXICO REGIONAL WEATHER ROUNDUP
NATIONAL WEATHER SERVICE ALBUQUERQUE NM
300 AM MDT TUE MAY 03 2016

NOTE: "FAIR" MEANS FEW OR NO CLOUDS BELOW 12,000 FEET AGL WITH NO
       SIGNIFICANT WEATHER OR OBSTRUCTIONS TO VISION.

      THIS PRODUCT IS RELEASED AS TWO VERSIONS.  ONE VERSION NEAR
      THE TOP OF THE HOUR CONTAINING PRELIMINARY DATA FROM ALBUQUERQUE
      AND OTHER STATIONS.  A FINAL VERSION WITH ADDITIONAL DATA IS
      ISSUED ABOUT 10 MINUTES AFTER THE HOUR.

NMZ501-503-504-510>518-031000-
NORTHWEST PLATEAU/NORTHCENTRAL MOUNTAINS

CITY           SKY/WX    TMP DP  RH WIND       PRES   REMARKS
FARMINGTON     FAIR      43  37  79 NE3       30.17S
SANTA FE       FAIR      47  36  65 W12       30.17F
TAOS           FAIR      34  27  75 CALM      30.20S

$$
NMZ402-403-502-505>509-031000-
WESTCENTRAL MOUNTAINS/SOUTHWEST MOUNTAINS

CITY           SKY/WX    TMP DP  RH WIND       PRES   REMARKS
GALLUP         FAIR      41  37  86 CALM      30.21F
GRANTS         CLOUDY    39  39  97 CALM      30.22F
SILVER CITY      N/A     45  25  45 N8        30.14F

$$
NMZ407-409-411-412-031000-
SOUTHERN DESERTS

CITY           SKY/WX    TMP DP  RH WIND       PRES   REMARKS
LORDSBURG      FAIR      52  30  43 S8        30.06F
DEMING         FAIR      50  28  42 E6        30.08F
HOLLOMAN AFB   FAIR      45  23  42 W8        30.09S
ALAMOGORDO     FAIR      48  25  40 NW8       30.10S
T OR C         CLOUDY    54  37  52 N8        30.12S

$$
NMZ519>523-031000-
CENTRAL VALLEYS/CENTRAL HIGHLANDS

CITY           SKY/WX    TMP DP  RH WIND       PRES   REMARKS
ALBUQUERQUE    MOCLDY    52  37  56 NW8       30.17F
DOUBLE EAGLE   CLOUDY    46  38  74 NW5       30.18F
CLINES CORNERS CLOUDY    42  30  62 NW12      30.16F
BELEN          MOCLDY    47  40  75 E5        30.15F
SOCORRO        NOT AVBL

$$
NMZ524>526-539-540-031000-
SOUTHCENTRAL MOUNTAINS

CITY           SKY/WX    TMP DP  RH WIND       PRES   REMARKS
RUIDOSO        NOT AVBL

$$
NMZ527>531-031000-
NORTHEAST HIGHLANDS/NORTHEAST PLAINS

CITY           SKY/WX    TMP DP  RH WIND       PRES   REMARKS
LAS VEGAS      FAIR      37  31  78 N6        30.16F WCI  32
RATON          FAIR      32  29  88 N7        30.14F WCI  26
CLAYTON        FAIR      41  34  76 W8        30.10F

$$
NMZ532>537-031000-
EASTCENTRAL PLAINS

CITY           SKY/WX    TMP DP  RH WIND       PRES   REMARKS
TUCUMCARI      FAIR      43  36  76 S5        30.09F
CANNON AFB     FAIR      45  33  63 S2        30.12F
CLOVIS AIRPORT FAIR      43  32  65 SW7       30.13F

$$
NMZ028-029-538-031000-
SOUTHEAST PLAINS

CITY           SKY/WX    TMP DP  RH WIND       PRES   REMARKS
ROSWELL        FAIR      49  31  49 W5        30.10F
ARTESIA        FAIR      45  30  57 CALM      30.11F
CARLSBAD       FAIR      44  30  57 NW3       30.09F
HOBBS          FAIR      45  34  65 S8        30.13S


$$




USA.gov is the U.S. government's official web portal to all federal, state and local government web resources and services.